EN

Hourly Weather Abaclia

Today, 28 November, Saturday

Time Temperature Precipitation Wind Pressure Humidity
00:00 +4°C° 0 mm 1 mps 759 mmHg 62%
01:00 +4°C° 0 mm 1 mps 759 mmHg 62%
02:00 +3°C° 0 mm 1 mps 759 mmHg 67%
03:00 +3°C° 0 mm 1 mps 758 mmHg 68%
04:00 +3°C° 0 mm 1 mps 758 mmHg 69%
05:00 +3°C° 0 mm 1 mps 758 mmHg 70%
06:00 +3°C° 0 mm 1 mps 758 mmHg 72%
07:00 +3°C° 0 mm 1 mps 758 mmHg 74%
08:00 +1°C° 0 mm 2 mps 758 mmHg 76%
09:00 +3°C° 0 mm 2 mps 758 mmHg 72%
10:00 +4°C° 0 mm 2 mps 758 mmHg 69%
11:00 +5°C° 0 mm 2 mps 758 mmHg 65%
12:00 +6°C° 0 mm 2 mps 758 mmHg 65%
13:00 +7°C° 0 mm 2 mps 758 mmHg 65%
14:00 +7°C° 0 mm 3 mps 758 mmHg 65%
15:00 +6°C° 0 mm 2 mps 758 mmHg 71%
16:00 +5°C° 0 mm 2 mps 758 mmHg 76%
17:00 +5°C° 0 mm 1 mps 758 mmHg 81%
18:00 +5°C° 0 mm 1 mps 758 mmHg 83%
19:00 +4°C° 0 mm 1 mps 758 mmHg 86%
20:00 +4°C° 0 mm 1 mps 758 mmHg 88%
21:00 +4°C° 0 mm 1 mps 758 mmHg 89%
22:00 +4°C° 0 mm 1 mps 758 mmHg 89%
23:00 +3°C° 0 mm 1 mps 759 mmHg 90%

Tomorrow, 29 November, Sunday

Time Temperature Precipitation Wind Pressure Humidity
00:00 +3°C° 0 mm 1 mps 759 mmHg 90%
01:00 +3°C° 0 mm 1 mps 758 mmHg 89%
02:00 +3°C° 0 mm 1 mps 758 mmHg 88%
03:00 +3°C° 0 mm 1 mps 758 mmHg 88%
04:00 +3°C° 0 mm 1 mps 758 mmHg 88%
05:00 +2°C° 0 mm 1 mps 758 mmHg 88%
06:00 +3°C° 0 mm 1 mps 758 mmHg 87%
07:00 +3°C° 0 mm 1 mps 759 mmHg 86%
08:00 +3°C° 0 mm 1 mps 759 mmHg 84%
09:00 +3°C° 0 mm 2 mps 759 mmHg 81%
10:00 +4°C° 0 mm 2 mps 759 mmHg 77%
11:00 +4°C° 0 mm 2 mps 759 mmHg 74%
12:00 +5°C° 0 mm 2 mps 759 mmHg 72%
13:00 +5°C° 0 mm 2 mps 759 mmHg 70%
14:00 +6°C° 0 mm 2 mps 759 mmHg 68%
15:00 +5°C° 0 mm 2 mps 759 mmHg 72%
16:00 +5°C° 0 mm 2 mps 759 mmHg 75%
17:00 +4°C° 0 mm 2 mps 759 mmHg 79%
18:00 +3°C° 0 mm 3 mps 759 mmHg 81%
19:00 +3°C° 0 mm 3 mps 759 mmHg 83%
20:00 +2°C° 0 mm 3 mps 759 mmHg 85%
21:00 +2°C° 0 mm 3 mps 759 mmHg 86%
22:00 +2°C° 0 mm 3 mps 759 mmHg 88%
23:00 +2°C° 0 mm 3 mps 759 mmHg 89%

Day after tomorrow, 30 November, Monday

Time Temperature Precipitation Wind Pressure Humidity
00:00 +2°C° 0.1 mm 3 mps 760 mmHg 90%
01:00 +2°C° 0.1 mm 3 mps 760 mmHg 91%
02:00 +1°C° 0.1 mm 4 mps 760 mmHg 92%
03:00 +1°C° 0.1 mm 4 mps 760 mmHg 92%
04:00 +1°C° 0.1 mm 4 mps 760 mmHg 92%
05:00 0°C° 0.1 mm 4 mps 760 mmHg 92%
06:00 0°C° 0.1 mm 5 mps 760 mmHg 93%
07:00 0°C° 0.1 mm 5 mps 760 mmHg 93%
08:00 0°C° 0.1 mm 5 mps 761 mmHg 94%
09:00 0°C° 0.3 mm 5 mps 761 mmHg 94%
10:00 0°C° 0.3 mm 5 mps 761 mmHg 94%
11:00 0°C° 0.3 mm 5 mps 761 mmHg 94%
12:00 0°C° 0.3 mm 5 mps 761 mmHg 93%
13:00 0°C° 0.3 mm 5 mps 761 mmHg 93%
14:00 0°C° 0.3 mm 5 mps 761 mmHg 92%
15:00 -1°C° 0.5 mm 6 mps 761 mmHg 93%
16:00 -1°C° 0.5 mm 6 mps 762 mmHg 94%
17:00 -1°C° 0.5 mm 6 mps 762 mmHg 95%
18:00 -1°C° 0.2 mm 6 mps 762 mmHg 94%
19:00 -1°C° 0.2 mm 6 mps 762 mmHg 94%
20:00 -1°C° 0.2 mm 6 mps 763 mmHg 93%
21:00 -1°C° 0 mm 6 mps 763 mmHg 89%
22:00 -1°C° 0 mm 6 mps 763 mmHg 85%
23:00 0°C° 0 mm 5 mps 763 mmHg 82%

1 December, Tuesday

Time Temperature Precipitation Wind Pressure Humidity
00:00 -2°C° 0 mm 6 mps 763 mmHg 80%
01:00 -2°C° 0 mm 6 mps 763 mmHg 79%
02:00 -2°C° 0 mm 6 mps 763 mmHg 78%
03:00 -2°C° 0 mm 6 mps 763 mmHg 78%
04:00 -3°C° 0 mm 6 mps 763 mmHg 79%
05:00 -3°C° 0 mm 6 mps 763 mmHg 79%
06:00 -3°C° 0 mm 6 mps 763 mmHg 81%
07:00 -4°C° 0 mm 6 mps 763 mmHg 82%
08:00 -4°C° 0 mm 6 mps 763 mmHg 84%
09:00 -3°C° 0 mm 6 mps 763 mmHg 84%
10:00 -3°C° 0 mm 6 mps 763 mmHg 84%
11:00 -2°C° 0 mm 6 mps 763 mmHg 84%
12:00 -2°C° 0.1 mm 6 mps 762 mmHg 85%
13:00 -2°C° 0.1 mm 6 mps 762 mmHg 86%
14:00 -1°C° 0.1 mm 6 mps 762 mmHg 87%
15:00 0°C° 0 mm 5 mps 762 mmHg 90%
16:00 0°C° 0 mm 4 mps 762 mmHg 92%
17:00 0°C° 0 mm 4 mps 762 mmHg 95%
18:00 +1°C° 0 mm 3 mps 762 mmHg 95%
19:00 +1°C° 0 mm 3 mps 762 mmHg 95%
20:00 +1°C° 0 mm 3 mps 762 mmHg 95%
21:00 +1°C° 0 mm 3 mps 762 mmHg 95%
22:00 +1°C° 0 mm 3 mps 762 mmHg 95%
23:00 +1°C° 0 mm 3 mps 762 mmHg 95%

2 December, Wednesday

Time Temperature Precipitation Wind Pressure Humidity
00:00 +1°C° 0 mm 3 mps 762 mmHg 95%
01:00 +1°C° 0 mm 3 mps 762 mmHg 95%
02:00 +1°C° 0 mm 3 mps 762 mmHg 95%
03:00 +1°C° 0 mm 3 mps 762 mmHg 94%
04:00 +1°C° 0 mm 3 mps 762 mmHg 94%
05:00 +2°C° 0 mm 2 mps 762 mmHg 94%
06:00 +2°C° 0 mm 2 mps 762 mmHg 94%
07:00 +2°C° 0 mm 2 mps 762 mmHg 94%
08:00 +1°C° 0 mm 2 mps 762 mmHg 94%
09:00 +2°C° 0 mm 2 mps 762 mmHg 89%
10:00 +3°C° 0 mm 2 mps 762 mmHg 84%
11:00 +4°C° 0 mm 2 mps 763 mmHg 79%
12:00 +4°C° 0 mm 2 mps 762 mmHg 76%
13:00 +5°C° 0 mm 2 mps 762 mmHg 73%
14:00 +5°C° 0 mm 2 mps 762 mmHg 70%
15:00 +5°C° 0 mm 2 mps 762 mmHg 73%
16:00 +4°C° 0 mm 2 mps 762 mmHg 77%
17:00 +3°C° 0 mm 2 mps 762 mmHg 81%
18:00 +3°C° 0 mm 2 mps 762 mmHg 84%
19:00 +2°C° 0 mm 2 mps 762 mmHg 87%
20:00 +2°C° 0 mm 2 mps 762 mmHg 91%
21:00 +3°C° 0 mm 1 mps 762 mmHg 91%
22:00 +2°C° 0 mm 1 mps 763 mmHg 92%
23:00 +2°C° 0 mm 1 mps 763 mmHg 92%

3 December, Thursday

Time Temperature Precipitation Wind Pressure Humidity
00:00 +2°C° 0 mm 1 mps 763 mmHg 93%
01:00 +2°C° 0 mm 1 mps 763 mmHg 93%
02:00 +2°C° 0 mm 1 mps 763 mmHg 93%
03:00 +2°C° 0 mm 1 mps 762 mmHg 92%
04:00 +2°C° 0 mm 1 mps 762 mmHg 92%
05:00 +2°C° 0 mm 1 mps 762 mmHg 91%
06:00 +2°C° 0 mm 1 mps 762 mmHg 90%
07:00 +3°C° 0 mm 1 mps 762 mmHg 88%
08:00 +3°C° 0 mm 1 mps 762 mmHg 87%
09:00 +3°C° 0 mm 2 mps 762 mmHg 86%
10:00 +3°C° 0 mm 2 mps 763 mmHg 85%
11:00 +4°C° 0 mm 2 mps 763 mmHg 84%
12:00 +4°C° 0 mm 2 mps 762 mmHg 85%
13:00 +4°C° 0 mm 2 mps 762 mmHg 86%
14:00 +5°C° 0 mm 2 mps 761 mmHg 87%
15:00 +5°C° 0 mm 2 mps 761 mmHg 87%
16:00 +5°C° 0 mm 2 mps 761 mmHg 88%
17:00 +4°C° 0 mm 3 mps 761 mmHg 88%
18:00 +4°C° 0 mm 3 mps 761 mmHg 87%
19:00 +4°C° 0 mm 3 mps 761 mmHg 87%
20:00 +3°C° 0 mm 3 mps 761 mmHg 86%
21:00 +4°C° 0 mm 3 mps 761 mmHg 87%
22:00 +4°C° 0 mm 3 mps 760 mmHg 89%
23:00 +4°C° 0 mm 3 mps 760 mmHg 90%
Show more